ATLAS CENTAUR 2 DEB, 3741

Orbit data source: Space-Track

ATLAS CENTAUR 2 DEB, 3741 is space debris in LEO originally from a launch on Wed, 27 Nov 1963 UTC launched from the Air Force Eastern Test Range (AFETR). Debris objects in space refer to the collection of defunct objects orbiting the Earth. Examples of debris include non-operational satellites, rocket bodies, and fragments generated from explosions, collisions, or faulty payload assembly.

Loading next visibility...
ATLAS CENTAUR 2 DEB details
Identifier
3741, 1963-047L
Orbit
LEO
Last TLE update1 day ago
Origin
Flag of USNASA LeRC (US)
ManufacturerUnknown
MissionSpacecraft
Bus & MotorUnknown
MassUnknown
Launch date (UTC)
1963-11-27 (61 years ago)
Launch vehicleUnknown
Launch site
Air Force Eastern Test Range (AFETR)
Object type
Payload
Rocket body
Debris
Shape & HBRUnknown
Radar Cross SectionSmall (<0.1 m²)

Expand to show TLE details & history

TLE from 1 day ago
0 ATLAS CENTAUR 2 DEB
1 03741U 63047L   24356.24736552  .00018948  00000-0  42100-2 0  9998
2 03741  29.8824 322.0639 0269173 301.3732  56.0792 14.35935816834360
Epoch: 2024-12-21T05:56Z
Definitive object data (Epoch: 2024-12-21T05:56:12.38Z)
Latitude-0.00003°
Longitude142.71101°
Altitude666.686 km
Speed7.58 km/s
True Right ascension21h 28m 15s
True Declination0° 00' 00"
Sunlit
Object was in daylight at TLE epoch
Visualization TLE readout
Latitude-24.76288°
Longitude9.76451°
Altitude718.888 km
Speed7.527 km/s
Apparent Right ascension14h 39m 54s
Apparent Declination-37° 31' 41"
Sunlit
Object is in daylight
Visualization observer readout
Local Sidereal Time05:29:46
Azimuth99.731° ESE
Elevation-57.096°
Doppler factor1
Orbital elements
Apogee altitude968.4 km
Perigee altitude583.269 km
Semi-major axis7,153.971 km
Eccentricity0.0269173
Inclination29.8824°
RAAN322.0639°
Arg. of periapsis301.3732°
True anomaly58.68678°
Mean anomaly56.0792°
Eccentric anomaly57.37815°
Mean motion3.58693 °/min
BSTAR0.00421
Orbital period100.36 mins
Loading maneuver chart data...

ATLAS CENTAUR 2 DEB Visibility forecast

Observer location: undefined°, undefined

Span
Click to sort rows by Start time (UTC) header in descending order
Start Az.
Max El. time (UTC)
Max El. Az.
Max El.
End time (UTC)
End Az.
4 mins2024-12-22 07:33:00.774Z223.468° SW2024-12-22 07:35:00.774Z204.628° SW12.352°2024-12-22 07:37:00.774Z186.208° SSW
6 mins2024-12-23 01:35:00.774Z195.358° SSW2024-12-23 01:37:00.774Z169.025° S20.03°2024-12-23 01:41:00.774Z120.727° SE
8 mins2024-12-23 03:20:00.774Z225.879° WSW2024-12-23 03:23:00.774Z184.058° SSW27.471°2024-12-23 03:28:00.774Z121.265° SE
8 mins2024-12-23 05:06:00.774Z235.846° WSW2024-12-23 05:09:00.774Z199.035° SSW24.417°2024-12-23 05:14:00.774Z141.001° SSE
|